Flag for Canada Weather past 2 weeks in Fredericton, New Brunswick, Canada

Now
10 °F

Light snow. Ice fog.


Feels Like: -8 °F
Forecast: -8 / 9 °F
Wind: 20 mph from Northwest

Location: Fredericton

Current Time: Feb 1, 2015 at 1:58:13 AM

Latest Report: Feb 1, 2015 at 1:00 AM


Visibility: 1 mi

Pressure: 29.63 "Hg

Humidity: 85%

Dew point: 7 °F

Location of FrederictonLocation

Historic Weather in Fredericton — Graph

°F

Fredericton temperature yesterday

Maximum temperature yesterday: 25 °F (at 12:04 PM)
Minimum temperature yesterday: 12 °F (at 10:48 PM)
Average temperature yesterday: 20 °F

Past Weeks' High & Low Weather Summary

 TemperatureHumidityPressure
High46 °F (Jan 19, 8:56 AM)100% (Jan 19, 2:55 AM)30.36 "Hg (Jan 19, 2:55 AM)
Low-4 °F (Jan 17, 7:00 AM)39% (Jan 17, 4:02 PM)28.89 "Hg (Jan 25, 1:00 AM)
Average17 °F77%29.86 "Hg
* Reported Midnight between Jan 16 and Jan 17 — Midnight between Jan 31 and Feb 1, Fredericton, Weather by CustomWeather, © 2014

Note: Actual official high and low records may vary slightly from our data, if they occured in-between our weather recording intervals... More about our weather records

Advertising

Fredericton weather history for previous 24 hours

 ConditionsComfort  
Time TempWeatherWind HumidityBarometerVisibility
12:00 AM
Feb 1
12 °FLight snow. Overcast.17 mph85%29.62 "Hg1 mi
11:00 PM
Jan 31
12 °FLight snow. Overcast.12 mph79%29.59 "Hg4 mi
10:48 PM12 °FLight snow. Overcast.14 mph79%29.59 "Hg5 mi
10:00 PM14 °FLight snow. Overcast.18 mph79%29.58 "Hg7 mi
9:49 PM14 °FLight snow. Overcast.16 mph79%29.58 "Hg6 mi
9:03 PM14 °FLight snow. Overcast.22 mph79%29.57 "Hg3 mi
8:00 PM16 °FLight snow. Overcast.22 mph86%29.54 "Hg1 mi
7:04 PM18 °FLight snow. Overcast.18 mph86%29.54 "Hg2 mi
6:56 PM18 °FLight snow. Overcast.24 mph86%29.53 "Hg2 mi
6:00 PM19 °FLight snow. Overcast.21 mph86%29.52 "Hg2 mi
5:59 PM19 °FLight snow. Overcast.21 mph86%29.52 "Hg2 mi
5:03 PM21 °FLight snow. Overcast.21 mph86%29.50 "Hg2 mi
4:00 PM23 °FLight snow. Cloudy.18 mph86%29.48 "Hg5 mi
3:00 PM23 °FLight snow. Mostly cloudy.23 mph93%29.45 "Hg1 mi
2:04 PM25 °FSnow. Ice fog.20 mph93%29.45 "Hg1 mi
1:00 PM25 °FSnow. Ice fog.22 mph93%29.49 "Hg1 mi
12:04 PM25 °FLight snow. Partly sunny.20 mph86%29.53 "Hg1 mi
11:00 AM23 °FLight snow. Overcast.22 mph86%29.54 "Hg7 mi
10:00 AM23 °FLight snow. Ice fog.18 mph93%29.56 "Hg1 mi
9:00 AM23 °FLight snow. Ice fog.21 mph86%29.57 "Hg1 mi
8:00 AM21 °FLight snow. Ice fog.17 mph100%29.62 "Hg1 mi
7:55 AM21 °FLight snow. Ice fog.14 mph93%29.62 "Hg1 mi
7:00 AM21 °FLight snow. Ice fog.14 mph100%29.63 "Hg1 mi
6:00 AM21 °FLight snow. Ice fog.13 mph93%29.64 "Hg1 mi
5:00 AM21 °FLight snow. Ice fog.16 mph93%29.64 "Hg1 mi
4:00 AM21 °FLight snow. Overcast.14 mph93%29.67 "Hg1 mi
3:00 AM21 °FLight snow. Overcast.9 mph93%29.71 "Hg2 mi
2:00 AM21 °FLight snow. Ice fog.12 mph93%29.72 "Hg1 mi
1:00 AM21 °FLight snow. Ice fog.10 mph100%29.73 "Hg1 mi
Weather by CustomWeather, © 2014

See weather overviewHow to use our weather pages